SCP
0 0 0 0 0 0 0 0 0 0 0 0 0 0 0 0 0 0 0 0 0 0 0 0 0 0 0 0 0 0 0 0 0 0 0 0 0 0 0 0 0 0 0 0 0
0 0 0 0 0 0 0 0 0 0 0 0 0 0 0 0 0 0 0 0 0 0 0 0 0 0 0 0 0 0 0 0 0 0 0 0 0 0 0 0 0 0 0 0 0
0 0 0 0 0 0 0 0 0 0 0 0 0 0 0 0 0 0 0 0 0 0 0 0 0 0 0 0 0 0 0 0 0 0 0 0 0 0 0 0 0 0 0 0 0
0 0 0 0 0 0 0 0 0 0 0 0 0 0 0 0 0 0 0 0 0 0 0 0 0 0 0 0 0 0 0 0 0 0 0 0 0 0 0 0 0 0 0 0 0
0 0 0 0 0 0 0 0 0 0 0 0 0 0 0 0 0 0 0 0 0 0 0 0 0 0 0 0 0 0 0 0 0 0 0 0 0 0 0 0 0 0 0 0 0
0 0 0 0 0 0 0 0 0 0 0 0 0 0 0 0 0 0 0 0 0 0 0 0 0 0 0 0 0 0 0 0 0 0 0 0 0 0 0 0 0 0 0 0 0
0 0 0 0 0 0 0 0 0 0 0 0 0 0 0 0 0 0 0 0 0 0 0 0 0 0 0 0 0 0 0 0 0 0 0 0 0 0 0 0 0 0 0 0 0
0 0 0 0 0 0 0 0 0 0 0 0 0 0 0 0 0 0 0 0 0 0 0 0 0 0 0 0 0 0 0 0 0 0 0 0 0 0 0 0 0 0 0 0 0
0 0 0 0 0 0 0 0 0 0 0 0 0 0 0 0 0 0 0 0 0 0 0 0 0 0 0 0 0 0 0 0 0 0 0 0 0 0 0 0 0 0 0 0 0
0 0 0 0 0 0 0 0 0 0 0 0 0 0 0 0 0 0 0 0 0 0 0 0 0 0 0 0 0 0 0 0 0 0 0 0 0 0 0 0 0 0 0 0 0
0 0 0 0 0 0 0 0 0 0 0 0 0 0 0 0 0 0 0 0 0 0 0 0 0 0 0 0 0 0 0 0 0 0 0 0 0 0 0 0 0 0 0 0 0
0 0 0 0 0 0 0 0 0 0 0 0 0 0 0 0 0 0 0 0 0 0 0 0 0 0 0 0 0 0 0 0 0 0 0 0 0 0 0 0 0 0 0 0 0
0 0 0 0 0 0 0 0 0 0 0 0 0 0 0 0 0 0 0 0 0 0 0 0 0 0 0 0 0 0 0 0 0 0 0 0 0 -0 0 0 0 0 0 0 0
0 0 0 0 0 0 0 0 0 0 0 0 0 0 0 0 0 0 0 0 0 0 0 0 0 0 0 0 0 0 0 0 0 0 0 0 0 0 0 0 0 0 0 0 0
0 0 0 0 0 0 0 0 0 0 0 0 0 0 0 0 0 0 0 0 0 0 0 0 0 0 0 0 0 0 0 0 0 0 0 0 0 0 0 0 0 0 0 0 0
0 0 0 0 0 0 0 0 0 0 0 0 0 0 0 0 0 0 0 0 0 0 0 0 0 0 0 0 0 0 0 0 0 0 0 0 0 0 0 0 0 0 0 0 0
0 0 0 0 0 0 0 0 0 0 0 0 0 0 0 0 0 0 0 0 0 0 0 0 0 0 0 0 0 0 0 0 0 0 0 0 0 0 0 0 0 0 0 0 0
0 0 0 0 0 0 0 0 0 0 0 0 0 0 0 0 0 0 0 0 0 0 0 0 0 0 0 0 0 0 0 0 0 0 0 0 0 0 0 0 0 0 0 0 0
0 0 0 0 0 0 0 0 0 0 0 0 0 0 0 0 0 0 0 0 0 0 0 0 0 0 0 0 0 0 0 0 0 0 0 0 0 0 0 0 0 0 0 0 0
0 0 0 0 0 0 0 0 0 0 0 0 0 0 0 0 0 0 0 0 0 0 0 0 0 0 0 0 0 0 0 0 0 0 0 0 0 0 0 0 0 0 0 0 0
0 0 0 0 0 0 0 0 0 0 0 0 0 0 0 0 0 0 0 0 0 0 0 0 0 0 0 0 0 0 0 0 0 0 0 0 0 0 0 0 0 0 0 0 -0
0 0 0 0 0 0 0 0 0 0 0 0 0 0 0 0 0 0 0 0 0 0 0 0 0 0 0 0 0 0 0 0 0 0 0 0 0 0 0 0 0 0 -0 -0 -0
0 0 0 0 0 0 0 0 0 0 0 0 0 0 0 0 0 0 0 0 0 0 0 0 0 0 0 0 0 0 0 0 0 0 0 0 0 0 0 0 -0 -0 -0 -0 0
0 0 0 0 0 0 0 0 0 0 0 0 0 0 0 0 0 0 0 0 0 0 0 0 0 0 0 0 0 0 0 0 0 0 0 0 0 0 0 0 -0 -0 0 0 0
0 0 0 0 0 0 0 0 0 0 0 0 0 0 0 0 0 0 0 0 0 0 0 0 0 0 0 0 0 0 0 0 0 0 0 0 0 0 0 0 -0 0 0 0 0
0 0 0 0 0 0 0 0 0 0 0 0 0 0 0 0 0 0 0 0 0 0 0 0 0 0 0 0 0 0 0 0 0 0 0 0 0 0 0 0 0 0 0 0 0
0 0 0 0 0 0 0 0 0 0 0 0 0 0 0 0 0 0 0 0 0 0 0 0 0 0 0 0 0 0 0 0 0 0 0 0 0 0 0 0 0 0 0 0 0
Wind_Speed_500mb
8 8 8 7 7 8 9 10 11 13 15 17 18 21 23 25 28 32 36 19 16 15 11 9 7 2 1 3 4 1 7 5 7 11 9 11 11 7 8 20 26 15 29 36 43
13 12 12 13 13 13 14 14 15 17 18 20 22 23 25 29 32 33 17 11 8 4 8 5 7 3 2 5 7 7 7 11 7 1 6 10 10 18 13 38 37 38 27 20 29
17 17 17 16 17 17 18 18 18 18 20 22 23 24 25 27 29 5 7 6 8 8 6 7 8 8 7 9 13 9 10 6 18 24 9 6 20 17 14 16 36 36 32 40 32
20 20 21 21 21 21 21 21 22 22 22 22 23 24 23 21 8 2 4 6 8 10 12 9 11 7 6 7 20 7 23 27 16 26 16 7 9 16 38 62 55 52 47 44 41
25 24 24 24 24 24 25 24 24 24 24 24 24 23 22 12 21 26 22 22 21 21 19 13 13 13 6 8 12 9 8 17 28 37 36 30 20 22 51 56 40 28 29 26 24
32 29 28 26 25 25 26 25 24 24 24 26 26 25 21 13 21 22 21 20 18 17 14 18 8 6 13 7 2 10 12 25 34 53 46 23 18 7 32 36 31 28 27 23 29
35 32 29 27 26 26 26 26 26 26 25 24 24 23 25 36 30 26 26 21 20 18 19 15 22 18 5 8 8 10 11 16 37 32 15 15 11 15 26 20 29 35 45 53 44
34 34 33 31 28 28 27 26 25 26 25 24 23 20 18 24 25 26 25 24 20 21 22 22 22 22 11 9 11 7 2 7 12 7 2 7 18 15 29 36 60 51 40 35 32
33 33 32 32 29 28 26 26 25 25 26 26 20 14 16 19 18 20 21 20 13 18 17 17 16 9 5 7 8 4 7 10 14 3 5 4 14 25 45 44 53 42 32 30 39
33 32 30 29 27 27 25 26 25 27 29 25 21 9 26 16 14 13 13 18 9 9 8 9 8 3 4 7 10 10 7 7 8 7 3 11 19 18 64 27 50 40 25 47 47
33 30 29 27 26 26 21 19 16 9 19 19 12 12 9 17 16 13 15 20 14 10 10 13 7 14 23 20 11 3 7 7 12 18 9 15 12 20 63 41 33 17 48 52 54
36 33 30 27 25 23 19 10 13 10 19 34 41 45 42 36 14 20 20 18 16 11 9 4 12 22 14 9 13 14 10 12 11 8 4 10 17 32 37 21 16 62 46 49 50
40 37 33 29 26 25 22 20 17 16 10 21 40 33 38 42 19 22 31 18 12 13 14 14 12 19 12 8 13 4 9 4 11 6 9 7 13 16 9 49 59 54 55 51 51
46 42 37 30 28 24 22 18 18 6 7 10 9 9 19 17 6 18 35 14 9 19 12 13 14 13 13 11 14 10 8 10 8 5 6 6 9 17 13 24 32 36 51 51 49
61 51 44 39 18 27 13 18 15 7 11 3 7 14 18 16 19 8 27 14 10 10 11 12 10 7 6 12 14 10 6 6 4 3 5 11 6 13 13 13 15 27 45 49 48
70 56 46 43 43 29 24 19 18 7 21 6 10 10 10 8 7 10 7 7 5 3 4 12 0 6 13 3 8 7 2 7 6 7 1 11 12 11 9 15 13 27 43 43 42
56 47 54 50 51 46 37 31 4 11 2 8 8 10 6 10 8 9 10 9 11 10 10 7 14 2 6 6 7 7 8 6 6 2 10 1 7 12 11 18 30 34 43 38 36
32 34 38 56 54 41 44 7 15 9 6 5 8 12 14 14 11 13 10 6 12 4 6 9 4 17 8 10 11 11 14 9 10 5 7 14 7 6 20 51 53 52 43 35 30
15 8 8 25 6 31 21 5 10 10 2 6 8 6 8 6 9 8 14 10 7 20 13 8 4 3 7 5 13 7 8 8 4 3 5 8 9 9 18 22 35 38 35 27 21
24 19 21 20 7 20 6 7 7 2 5 8 7 3 7 7 6 5 3 5 8 4 5 6 3 5 3 5 7 3 2 1 5 1 7 8 7 11 16 15 13 18 23 18 14
38 21 28 33 21 21 6 11 9 16 8 6 3 8 8 6 2 8 11 5 10 4 11 6 6 7 8 7 11 3 2 3 4 10 9 4 9 8 20 15 16 18 18 12 8
25 6 31 45 21 5 8 12 15 15 19 9 6 7 11 9 8 1 6 8 21 5 8 4 6 8 13 10 4 8 7 10 7 8 5 3 15 14 19 24 22 19 17 10 9
19 9 29 45 12 18 10 11 16 10 11 15 17 14 7 13 6 13 10 3 11 8 8 3 2 4 16 8 7 4 5 8 9 4 10 10 15 13 22 17 16 21 15 14 9
9 5 13 34 17 9 14 16 19 24 10 14 7 11 8 10 10 9 11 2 3 8 10 5 9 13 15 7 5 6 7 9 9 5 5 18 16 39 25 2 17 17 19 14 8
20 10 15 9 15 22 10 12 18 14 17 29 12 18 16 11 14 15 12 9 5 3 4 7 12 9 5 11 9 11 20 8 11 19 13 38 27 33 19 2 23 28 19 11 10
18 10 9 3 15 20 22 27 25 18 18 11 20 19 30 20 17 11 13 10 9 4 4 6 6 4 7 9 13 16 27 15 23 32 24 28 41 6 6 14 24 18 9 15 23
37 18 10 9 7 14 26 31 16 16 4 4 20 12 11 8 22 24 20 18 13 13 7 8 9 6 10 4 8 16 20 29 20 13 11 16 18 4 6 6 16 6 7 24 11
Wind_Direction_500mb
289 295 298 302 306 312 314 316 317 318 319 318 319 321 320 318 317 312 310 297 290 276 247 223 229 225 212 172 291 285 59 264 265 8 320 22 10 29 296 262 277 276 279 285 288
279 284 290 296 299 301 303 306 310 313 314 314 315 317 318 319 319 314 311 308 284 223 194 190 99 34 279 240 186 133 132 232 156 171 312 328 7 333 321 291 282 285 283 329 309
274 279 283 286 288 291 292 296 300 303 306 307 309 313 318 323 326 350 20 96 121 148 175 176 205 239 226 236 205 196 201 226 304 331 324 319 319 322 311 282 282 290 297 303 307
268 275 279 282 284 286 289 294 298 301 303 304 306 309 313 316 301 317 335 275 259 231 224 239 220 188 226 227 221 221 236 253 275 305 309 287 271 292 273 268 288 292 291 291 291
266 270 273 277 280 284 287 292 296 301 305 306 307 307 309 287 263 273 275 278 275 260 256 222 206 203 230 249 334 218 252 286 288 287 291 288 267 262 278 293 302 306 304 300 296
268 267 269 272 276 281 286 291 295 298 301 301 301 301 294 253 272 274 276 272 264 248 233 202 193 265 293 273 245 308 315 297 294 280 272 260 268 297 285 326 311 306 316 323 322
272 269 267 268 273 276 280 286 291 293 294 295 295 293 277 269 266 266 274 273 255 234 218 200 233 257 313 313 315 311 321 308 269 272 220 217 304 225 295 330 305 312 321 319 316
267 269 270 269 268 271 277 282 287 289 290 290 291 286 262 265 261 261 261 257 240 235 231 218 231 247 245 295 341 287 313 311 287 102 164 155 271 263 287 295 296 308 321 321 68
263 265 268 269 269 270 275 280 282 284 284 282 282 258 263 248 247 252 245 241 227 222 227 228 225 204 184 104 355 286 232 209 310 315 127 148 256 273 293 289 287 307 323 94 94
263 262 263 266 267 271 277 285 286 279 269 268 243 255 240 232 229 229 215 210 204 182 155 173 169 114 47 109 219 223 232 293 261 266 189 228 249 278 290 294 291 301 94 93 82
257 259 261 263 265 268 276 289 284 269 231 218 174 218 251 234 230 211 193 182 165 169 167 195 135 201 212 203 206 299 249 266 275 279 303 273 304 283 279 294 289 356 108 96 83
257 256 255 257 263 265 270 259 265 277 296 254 253 256 251 252 232 224 204 180 178 194 156 89 224 226 230 216 209 226 225 255 279 323 311 291 296 282 286 286 83 112 94 91 89
252 252 251 252 254 254 248 245 266 295 261 270 242 240 229 234 232 219 196 196 185 185 197 187 221 205 195 263 279 281 236 228 246 309 287 320 293 287 14 85 88 91 101 93 88
248 244 241 240 251 242 235 230 240 259 268 244 220 215 189 162 225 185 187 193 216 201 212 243 230 243 260 235 196 255 222 205 225 100 231 68 281 290 67 85 69 74 85 90 87
240 235 231 228 210 191 202 198 189 163 291 169 161 161 154 168 138 183 197 201 190 179 135 232 169 145 172 229 158 236 114 205 226 191 28 280 95 263 134 84 95 91 86 87 81
243 224 221 219 215 202 196 186 157 104 234 211 140 164 131 170 144 124 156 170 180 178 218 221 42 189 198 177 111 137 36 288 90 124 7 257 162 291 176 170 127 106 99 94 86
230 222 221 222 218 215 206 170 157 214 203 188 193 162 179 161 173 171 160 180 163 136 211 189 222 193 170 111 47 83 68 307 353 3 219 124 133 241 17 97 116 110 98 86 74
198 213 223 225 229 223 205 146 214 187 266 168 134 158 179 153 198 186 143 214 242 240 146 170 291 159 186 179 182 173 165 167 234 222 250 339 261 10 83 96 104 107 102 90 73
175 148 167 161 101 176 170 157 185 204 36 42 32 173 213 174 136 148 196 209 217 179 181 140 151 97 145 168 139 201 177 191 175 72 56 217 104 78 95 91 101 104 100 90 80
204 200 221 213 303 194 90 207 237 161 125 130 142 267 219 19 42 114 238 293 163 141 186 178 187 210 180 117 49 145 260 326 14 293 254 268 264 166 167 141 118 109 116 108 97
193 181 195 214 204 186 190 207 208 216 130 125 197 178 184 148 281 213 212 31 30 130 50 116 124 271 92 188 177 130 209 199 191 159 198 240 244 174 161 150 147 156 151 140 139
190 171 179 181 188 193 201 177 190 162 193 202 176 232 195 150 173 122 264 341 353 348 141 353 121 187 219 264 126 206 213 168 174 255 242 171 268 139 146 157 155 155 165 160 142
163 161 180 193 206 204 182 176 186 161 180 173 191 203 196 157 181 227 204 52 11 49 134 188 6 24 339 6 39 83 121 115 103 121 207 240 251 174 144 150 169 176 166 143 120
134 167 193 222 232 200 195 199 208 204 183 178 165 147 153 163 204 184 207 29 132 166 136 193 173 172 200 160 124 276 169 106 122 160 194 240 296 282 294 201 173 161 143 118 80
187 223 205 195 222 225 211 186 190 180 212 177 202 184 155 186 185 197 191 145 34 199 55 131 189 209 233 148 162 219 260 178 203 236 211 274 265 274 296 105 166 145 120 88 2
187 187 195 285 189 197 202 223 220 206 170 199 214 190 197 212 195 180 154 160 182 163 114 346 190 101 292 181 204 258 257 238 234 248 246 256 267 277 191 123 122 113 77 2 341
207 200 183 210 188 186 218 223 209 173 139 131 193 137 146 141 117 107 96 93 135 144 140 143 129 88 271 76 53 297 245 222 226 200 199 228 241 181 237 206 157 135 337 331 305
Wind_Speed_850mb
8 8 8 7 7 8 9 10 11 13 15 17 18 21 23 25 28 32 36 19 16 15 11 9 7 2 1 3 4 1 7 5 7 11 9 11 11 7 8 20 26 15 29 36 43
13 12 12 13 13 13 14 14 15 17 18 20 22 23 25 29 32 33 17 11 8 4 8 5 7 3 2 5 7 7 7 11 7 1 6 10 10 18 13 38 37 38 27 20 29
17 17 17 16 17 17 18 18 18 18 20 22 23 24 25 27 29 5 7 6 8 8 6 7 8 8 7 9 13 9 10 6 18 24 9 6 20 17 14 16 36 36 32 40 32
20 20 21 21 21 21 21 21 22 22 22 22 23 24 23 21 8 2 4 6 8 10 12 9 11 7 6 7 20 7 23 27 16 26 16 7 9 16 38 62 55 52 47 44 41
25 24 24 24 24 24 25 24 24 24 24 24 24 23 22 12 21 26 22 22 21 21 19 13 13 13 6 8 12 9 8 17 28 37 36 30 20 22 51 56 40 28 29 26 24
32 29 28 26 25 25 26 25 24 24 24 26 26 25 21 13 21 22 21 20 18 17 14 18 8 6 13 7 2 10 12 25 34 53 46 23 18 7 32 36 31 28 27 23 29
35 32 29 27 26 26 26 26 26 26 25 24 24 23 25 36 30 26 26 21 20 18 19 15 22 18 5 8 8 10 11 16 37 32 15 15 11 15 26 20 29 35 45 53 44
34 34 33 31 28 28 27 26 25 26 25 24 23 20 18 24 25 26 25 24 20 21 22 22 22 22 11 9 11 7 2 7 12 7 2 7 18 15 29 36 60 51 40 35 32
33 33 32 32 29 28 26 26 25 25 26 26 20 14 16 19 18 20 21 20 13 18 17 17 16 9 5 7 8 4 7 10 14 3 5 4 14 25 45 44 53 42 32 30 39
33 32 30 29 27 27 25 26 25 27 29 25 21 9 26 16 14 13 13 18 9 9 8 9 8 3 4 7 10 10 7 7 8 7 3 11 19 18 64 27 50 40 25 47 47
33 30 29 27 26 26 21 19 16 9 19 19 12 12 9 17 16 13 15 20 14 10 10 13 7 14 23 20 11 3 7 7 12 18 9 15 12 20 63 41 33 17 48 52 54
36 33 30 27 25 23 19 10 13 10 19 34 41 45 42 36 14 20 20 18 16 11 9 4 12 22 14 9 13 14 10 12 11 8 4 10 17 32 37 21 16 62 46 49 50
40 37 33 29 26 25 22 20 17 16 10 21 40 33 38 42 19 22 31 18 12 13 14 14 12 19 12 8 13 4 9 4 11 6 9 7 13 16 9 49 59 54 55 51 51
46 42 37 30 28 24 22 18 18 6 7 10 9 9 19 17 6 18 35 14 9 19 12 13 14 13 13 11 14 10 8 10 8 5 6 6 9 17 13 24 32 36 51 51 49
61 51 44 39 18 27 13 18 15 7 11 3 7 14 18 16 19 8 27 14 10 10 11 12 10 7 6 12 14 10 6 6 4 3 5 11 6 13 13 13 15 27 45 49 48
70 56 46 43 43 29 24 19 18 7 21 6 10 10 10 8 7 10 7 7 5 3 4 12 0 6 13 3 8 7 2 7 6 7 1 11 12 11 9 15 13 27 43 43 42
56 47 54 50 51 46 37 31 4 11 2 8 8 10 6 10 8 9 10 9 11 10 10 7 14 2 6 6 7 7 8 6 6 2 10 1 7 12 11 18 30 34 43 38 36
32 34 38 56 54 41 44 7 15 9 6 5 8 12 14 14 11 13 10 6 12 4 6 9 4 17 8 10 11 11 14 9 10 5 7 14 7 6 20 51 53 52 43 35 30
15 8 8 25 6 31 21 5 10 10 2 6 8 6 8 6 9 8 14 10 7 20 13 8 4 3 7 5 13 7 8 8 4 3 5 8 9 9 18 22 35 38 35 27 21
24 19 21 20 7 20 6 7 7 2 5 8 7 3 7 7 6 5 3 5 8 4 5 6 3 5 3 5 7 3 2 1 5 1 7 8 7 11 16 15 13 18 23 18 14
38 21 28 33 21 21 6 11 9 16 8 6 3 8 8 6 2 8 11 5 10 4 11 6 6 7 8 7 11 3 2 3 4 10 9 4 9 8 20 15 16 18 18 12 8
25 6 31 45 21 5 8 12 15 15 19 9 6 7 11 9 8 1 6 8 21 5 8 4 6 8 13 10 4 8 7 10 7 8 5 3 15 14 19 24 22 19 17 10 9
19 9 29 45 12 18 10 11 16 10 11 15 17 14 7 13 6 13 10 3 11 8 8 3 2 4 16 8 7 4 5 8 9 4 10 10 15 13 22 17 16 21 15 14 9
9 5 13 34 17 9 14 16 19 24 10 14 7 11 8 10 10 9 11 2 3 8 10 5 9 13 15 7 5 6 7 9 9 5 5 18 16 39 25 2 17 17 19 14 8
20 10 15 9 15 22 10 12 18 14 17 29 12 18 16 11 14 15 12 9 5 3 4 7 12 9 5 11 9 11 20 8 11 19 13 38 27 33 19 2 23 28 19 11 10
18 10 9 3 15 20 22 27 25 18 18 11 20 19 30 20 17 11 13 10 9 4 4 6 6 4 7 9 13 16 27 15 23 32 24 28 41 6 6 14 24 18 9 15 23
37 18 10 9 7 14 26 31 16 16 4 4 20 12 11 8 22 24 20 18 13 13 7 8 9 6 10 4 8 16 20 29 20 13 11 16 18 4 6 6 16 6 7 24 11
Wind_Direction_850mb
289 295 298 302 306 312 314 316 317 318 319 318 319 321 320 318 317 312 310 297 290 276 247 223 229 225 212 172 291 285 59 264 265 8 320 22 10 29 296 262 277 276 279 285 288
279 284 290 296 299 301 303 306 310 313 314 314 315 317 318 319 319 314 311 308 284 223 194 190 99 34 279 240 186 133 132 232 156 171 312 328 7 333 321 291 282 285 283 329 309
274 279 283 286 288 291 292 296 300 303 306 307 309 313 318 323 326 350 20 96 121 148 175 176 205 239 226 236 205 196 201 226 304 331 324 319 319 322 311 282 282 290 297 303 307
268 275 279 282 284 286 289 294 298 301 303 304 306 309 313 316 301 317 335 275 259 231 224 239 220 188 226 227 221 221 236 253 275 305 309 287 271 292 273 268 288 292 291 291 291
266 270 273 277 280 284 287 292 296 301 305 306 307 307 309 287 263 273 275 278 275 260 256 222 206 203 230 249 334 218 252 286 288 287 291 288 267 262 278 293 302 306 304 300 296
268 267 269 272 276 281 286 291 295 298 301 301 301 301 294 253 272 274 276 272 264 248 233 202 193 265 293 273 245 308 315 297 294 280 272 260 268 297 285 326 311 306 316 323 322
272 269 267 268 273 276 280 286 291 293 294 295 295 293 277 269 266 266 274 273 255 234 218 200 233 257 313 313 315 311 321 308 269 272 220 217 304 225 295 330 305 312 321 319 316
267 269 270 269 268 271 277 282 287 289 290 290 291 286 262 265 261 261 261 257 240 235 231 218 231 247 245 295 341 287 313 311 287 102 164 155 271 263 287 295 296 308 321 321 68
263 265 268 269 269 270 275 280 282 284 284 282 282 258 263 248 247 252 245 241 227 222 227 228 225 204 184 104 355 286 232 209 310 315 127 148 256 273 293 289 287 307 323 94 94
263 262 263 266 267 271 277 285 286 279 269 268 243 255 240 232 229 229 215 210 204 182 155 173 169 114 47 109 219 223 232 293 261 266 189 228 249 278 290 294 291 301 94 93 82
257 259 261 263 265 268 276 289 284 269 231 218 174 218 251 234 230 211 193 182 165 169 167 195 135 201 212 203 206 299 249 266 275 279 303 273 304 283 279 294 289 356 108 96 83
257 256 255 257 263 265 270 259 265 277 296 254 253 256 251 252 232 224 204 180 178 194 156 89 224 226 230 216 209 226 225 255 279 323 311 291 296 282 286 286 83 112 94 91 89
252 252 251 252 254 254 248 245 266 295 261 270 242 240 229 234 232 219 196 196 185 185 197 187 221 205 195 263 279 281 236 228 246 309 287 320 293 287 14 85 88 91 101 93 88
248 244 241 240 251 242 235 230 240 259 268 244 220 215 189 162 225 185 187 193 216 201 212 243 230 243 260 235 196 255 222 205 225 100 231 68 281 290 67 85 69 74 85 90 87
240 235 231 228 210 191 202 198 189 163 291 169 161 161 154 168 138 183 197 201 190 179 135 232 169 145 172 229 158 236 114 205 226 191 28 280 95 263 134 84 95 91 86 87 81
243 224 221 219 215 202 196 186 157 104 234 211 140 164 131 170 144 124 156 170 180 178 218 221 42 189 198 177 111 137 36 288 90 124 7 257 162 291 176 170 127 106 99 94 86
230 222 221 222 218 215 206 170 157 214 203 188 193 162 179 161 173 171 160 180 163 136 211 189 222 193 170 111 47 83 68 307 353 3 219 124 133 241 17 97 116 110 98 86 74
198 213 223 225 229 223 205 146 214 187 266 168 134 158 179 153 198 186 143 214 242 240 146 170 291 159 186 179 182 173 165 167 234 222 250 339 261 10 83 96 104 107 102 90 73
175 148 167 161 101 176 170 157 185 204 36 42 32 173 213 174 136 148 196 209 217 179 181 140 151 97 145 168 139 201 177 191 175 72 56 217 104 78 95 91 101 104 100 90 80
204 200 221 213 303 194 90 207 237 161 125 130 142 267 219 19 42 114 238 293 163 141 186 178 187 210 180 117 49 145 260 326 14 293 254 268 264 166 167 141 118 109 116 108 97
193 181 195 214 204 186 190 207 208 216 130 125 197 178 184 148 281 213 212 31 30 130 50 116 124 271 92 188 177 130 209 199 191 159 198 240 244 174 161 150 147 156 151 140 139
190 171 179 181 188 193 201 177 190 162 193 202 176 232 195 150 173 122 264 341 353 348 141 353 121 187 219 264 126 206 213 168 174 255 242 171 268 139 146 157 155 155 165 160 142
163 161 180 193 206 204 182 176 186 161 180 173 191 203 196 157 181 227 204 52 11 49 134 188 6 24 339 6 39 83 121 115 103 121 207 240 251 174 144 150 169 176 166 143 120
134 167 193 222 232 200 195 199 208 204 183 178 165 147 153 163 204 184 207 29 132 166 136 193 173 172 200 160 124 276 169 106 122 160 194 240 296 282 294 201 173 161 143 118 80
187 223 205 195 222 225 211 186 190 180 212 177 202 184 155 186 185 197 191 145 34 199 55 131 189 209 233 148 162 219 260 178 203 236 211 274 265 274 296 105 166 145 120 88 2
187 187 195 285 189 197 202 223 220 206 170 199 214 190 197 212 195 180 154 160 182 163 114 346 190 101 292 181 204 258 257 238 234 248 246 256 267 277 191 123 122 113 77 2 341
207 200 183 210 188 186 218 223 209 173 139 131 193 137 146 141 117 107 96 93 135 144 140 143 129 88 271 76 53 297 245 222 226 200 199 228 241 181 237 206 157 135 337 331 305